Voltar ao catálogo

THORAD AGENA D DEB

AtivoLEO
NORAD 4759·DEBRIS·🇺🇸 United States

Lançado Apr 8, 1970 de Vandenberg Space Force Base

Loading…

Próximas Passagens (próximas 24 horas)

TLE

AtualizadoSource: Space-Track

Época: Sep 14, 2026, 00:45 UTC

1 04759U 70025DH  26257.03132201  .00000465  00000-0  52927-3 0  9996
2 04759 100.0555 270.7446 0002665  54.2339   3.6765 13.76095433807146

Acompanhe THORAD AGENA D DEB em tempo real com AllMySat

Download on the App Store